Home   Weather   The Bottom   Past weeks

Flag for Caribbean Netherlands Past Weather in The Bottom, Saba, Caribbean Netherlands — Yesterday and Last 2 Weeks

Now
79 °F

Warm.


Feels Like: 81 °F
Forecast: 70 / 81 °F
Wind: 5 mph from South

Location: Roosevelt Airport / Saint Eustatius

Current Time: Jan 24, 2017 at 9:25:10 am

Latest Report: Jan 24, 2017 at 7:55 am


Visibility: N/A

Pressure: 29.98 "Hg

Humidity: 74%

Dew Point: 70 °F

Location of The BottomLocation

Past Weather in The Bottom — Graph

°F

The Bottom Temperature Yesterday

Maximum temperature yesterday: 84 °F (at 12:55 pm)
Minimum temperature yesterday: 64 °F (at 6:55 am)
Average temperature yesterday: 74 °F

High & Low Weather Summary for the Past Weeks

 TemperatureHumidityPressure
High84 °F (Jan 23, 12:55 pm)100% (Jan 22, 4:55 am)30.09 "Hg (Jan 22, 4:55 am)
Low63 °F (Jan 21, 2:55 am)48% (Jan 12, 1:55 pm)29.92 "Hg (Jan 10, 1:55 pm)
Average76 °F75%29.99 "Hg
* Reported Jan 9 7:55 am — Jan 24 7:55 am, The Bottom, Weather by CustomWeather, © 2017

Note: Actual official high and low records may vary slightly from our data, if they occured in-between our weather recording intervals... More about our weather records

Advertising

The Bottom Weather History for the Previous 24 Hours

Scroll right to see more
 ConditionsComfort  
Time TempWeatherWind HumidityBarometerVisibility
7:55 am
Tue, Jan 24
79 °FWarm.5 mph74%29.98 "HgN/A
6:55 am73 °FMild.1 mph89%29.98 "HgN/A
5:55 am77 °FWarm.3 mph79%29.95 "HgN/A
4:55 am75 °FMild.6 mph83%29.95 "HgN/A
3:55 am75 °FMild.5 mph83%29.95 "HgN/A
2:55 am75 °FMild.6 mph89%29.95 "HgN/A
1:55 am75 °FMild.3 mph83%29.95 "HgN/A
12:55 am75 °FMild.3 mph78%29.95 "HgN/A
11:55 pm
Mon, Jan 23
75 °FMild.3 mph78%29.98 "HgN/A
10:55 pm73 °FMild.3 mph83%29.98 "HgN/A
9:55 pm70 °FMild.2 mph88%29.98 "HgN/A
8:55 pm70 °FMild.1 mph94%29.98 "HgN/A
7:55 pm72 °FMild.1 mph83%29.98 "HgN/A
6:55 pm73 °FMild.1 mph83%29.95 "HgN/A
5:55 pm77 °FWarm.6 mph74%29.95 "HgN/A
4:55 pm81 °FWarm.7 mph66%29.92 "HgN/A
3:55 pm82 °FWarm.9 mph55%29.92 "HgN/A
2:55 pm82 °FWarm.10 mph55%29.92 "HgN/A
1:55 pm82 °FWarm.7 mph66%29.92 "HgN/A
12:55 pm84 °FWarm.9 mph55%29.95 "HgN/A
11:55 am82 °FWarm.9 mph58%29.98 "HgN/A
10:55 am82 °FWarm.10 mph58%30.01 "HgN/A
9:55 am81 °FWarm.9 mph62%30.01 "HgN/A
Weather by CustomWeather, © 2017

See weather overviewHow to use our weather pages